Yakima, WA

7:28 PM PST on December 10, 2016 (GMT -0800)
Yakima Air Term-McAllister

Weather History for KYKM - July, 2013

Change the Weather History Date:

Saturday, July 27, 2013

  Actual Average Record
Temperature  
Mean Temperature 77 °F 72 °F  
Max Temperature 94 °F 90 °F 106 °F (1998)
Min Temperature 60 °F 55 °F 45 °F (1955)
Degree Days  
Heating Degree Days 0 0  
Month to date heating degree days 0 19  
Since 1 June heating degree days 39 117  
Since 1 July heating degree days 0 19  
Cooling Degree Days 12 7  
Month to date cooling degree days 356 162  
Year to date cooling degree days 524 247  
Since 1 June cooling degree days 472 227  
Growing Degree Days 28 (Base 50)    
Moisture  
Dew Point 40 °F    
Average Humidity 34    
Maximum Humidity 56    
Minimum Humidity 11    
Precipitation  
Precipitation 0.00 in 0.01 in 0.16 in (1947)
Month to date precipitation T 0.20  
Year to date precipitation 4.17 4.49  
Snow  
Snow 0.00 in 0.00 in 0.00 in (2002)
Month to date snowfall 0.0 0.0  
Year to date snowfall 1.1 8.6  
Since 1 July snowfall 0.0 0.0  
Snow Depth 0.00 in    
Sea Level Pressure  
Sea Level Pressure 29.92 in    
Wind  
Wind Speed 6 mph (NW)    
Max Wind Speed 20 mph    
Max Gust Speed 25 mph    
Visibility 10 miles    
Events      
T = Trace of Precipitation, MM = Missing Value Source: NWS Daily Summary

Daily Weather History Graph

Daily Weather History Graph

Search for Another Location

Airport or City:

Trip Planner

Search our weather history database for the weather conditions in past years. The results will help you decide how hot, cold, wet, or windy it might be!

Date:

Astronomy

Jul. 27, 2013 Rise Set
Actual Time 5:37 AM PDT 8:39 PM PDT
Civil Twilight 5:01 AM PDT 9:14 PM PDT
Nautical Twilight 4:15 AM PDT 10:00 PM PDT
Astronomical Twilight 3:19 AM PDT 10:56 PM PDT
Moon 11:02 PM PDT (7/27) 11:48 AM PDT (7/27)
Length of Visible Light 16h 13m
Length of Day
15h 01m
Waning Gibbous, 70% of the Moon is Illuminated
Jul 27
Waning Gibbous
Jul 29
Last Quarter
Aug 6
New
Aug 14
First Quarter
Aug 20
Full

Hourly Weather History & Observations

Time (PDT) Temp. Dew Point Humidity Pressure Visibility Wind Dir Wind Speed Gust Speed Precip Events Conditions
12:53 AM 75.0 °F 46.9 °F 37% 29.96 in 10.0 mi North 16.1 mph - N/A   Clear
1:53 AM 72.0 °F 46.0 °F 40% 29.96 in 10.0 mi NNE 4.6 mph - N/A   Clear
2:53 AM 68.0 °F 46.0 °F 45% 29.97 in 10.0 mi Calm Calm - N/A   Clear
3:53 AM 62.1 °F 46.9 °F 58% 29.98 in 10.0 mi Variable 4.6 mph - N/A   Clear
4:53 AM 64.9 °F 44.1 °F 47% 29.99 in 10.0 mi SW 6.9 mph - N/A   Clear
5:53 AM 64.0 °F 42.1 °F 45% 30.00 in 10.0 mi NE 3.5 mph - N/A   Clear
6:53 AM 66.9 °F 42.1 °F 40% 30.01 in 10.0 mi West 3.5 mph - N/A   Clear
7:53 AM 73.0 °F 42.1 °F 33% 30.01 in 10.0 mi Variable 3.5 mph - N/A   Clear
8:53 AM 75.9 °F 43.0 °F 31% 30.01 in 10.0 mi Calm Calm - N/A   Clear
9:53 AM 80.1 °F 39.9 °F 24% 29.99 in 10.0 mi Calm Calm - N/A   Clear
10:53 AM 82.9 °F 37.9 °F 20% 29.97 in 10.0 mi West 5.8 mph - N/A   Clear
11:53 AM 86.0 °F 35.1 °F 16% 29.95 in 10.0 mi Variable 3.5 mph - N/A   Clear
12:53 PM 88.0 °F 33.1 °F 14% 29.93 in 10.0 mi Variable 3.5 mph - N/A   Clear
1:53 PM 90.0 °F 33.1 °F 13% 29.91 in 10.0 mi SW 4.6 mph - N/A   Clear
2:53 PM 91.0 °F 30.9 °F 12% 29.89 in 10.0 mi Calm Calm - N/A   Clear
3:53 PM 93.0 °F 33.1 °F 12% 29.86 in 10.0 mi Variable 4.6 mph - N/A   Clear
4:53 PM 93.9 °F 36.0 °F 13% 29.83 in 10.0 mi NNW 4.6 mph - N/A   Clear
5:53 PM 93.9 °F 35.1 °F 13% 29.82 in 10.0 mi North 3.5 mph - N/A   Clear
6:53 PM 89.1 °F 37.0 °F 16% 29.82 in 10.0 mi NNW 10.4 mph - N/A   Clear
7:53 PM 82.9 °F 39.9 °F 22% 29.82 in 10.0 mi North 15.0 mph 20.7 mph N/A   Clear
8:53 PM 79.0 °F 41.0 °F 26% 29.84 in 10.0 mi NNW 16.1 mph - N/A   Clear
9:53 PM 75.9 °F 43.0 °F 31% 29.85 in 10.0 mi NW 13.8 mph 19.6 mph N/A   Clear
10:53 PM 72.0 °F 43.0 °F 35% 29.86 in 10.0 mi NW 6.9 mph - N/A   Clear
11:53 PM 70.0 °F 41.0 °F 35% 29.86 in 10.0 mi NNW 6.9 mph - N/A   Clear